�N����,����,�~����,�C��,���x,�C��,����,���ϕ���,�ő�u�ԕ���,�ő厞����,���˗�,�I�_���x,�n�����x,�ő啗���N��,DTYPE
"23/05/12","00:10",0.0,11.7,64.6,1015.2,340.9,2.1,3.3,342.5,0.00,5.3,16.5,"00:00:44",1
"23/05/12","00:20",0.0,10.8,67.1,1015.4,303.0,2.5,3.2,317.1,0.00,5.0,16.6,"00:12:24",1
"23/05/12","00:30",0.0,10.3,69.0,1015.2,321.5,3.1,4.1,335.1,0.00,4.9,16.7,"00:27:44",1
"23/05/12","00:40",0.0,10.2,70.5,1014.7,330.5,2.8,4.3,341.4,0.00,5.1,16.5,"00:35:20",1
"23/05/12","00:50",0.0,10.4,71.0,1015.2,339.6,2.3,5.2,320.3,0.00,5.4,16.3,"00:42:40",1
"23/05/12","01:00",0.0,10.3,71.2,1014.7,345.5,2.3,4.3,342.0,0.00,5.4,16.4,"00:53:12",1
"23/05/12","01:10",0.0,10.2,71.8,1014.9,336.8,2.7,4.2,345.1,0.00,5.4,16.2,"01:07:12",1
"23/05/12","01:20",0.0,10.2,72.6,1014.5,332.3,3.5,5.6,331.4,0.00,5.5,16.3,"01:15:36",1
"23/05/12","01:30",0.0,10.3,73.0,1014.5,332.6,3.9,6.3,341.3,0.00,5.7,16.2,"01:26:00",1
"23/05/12","01:40",0.0,10.1,73.5,1014.5,336.5,3.4,5.1,336.4,0.00,5.6,16.0,"01:35:12",1
"23/05/12","01:50",0.0,9.9,73.9,1014.7,334.4,3.6,5.6,340.5,0.00,5.5,16.2,"01:47:28",1
"23/05/12","02:00",0.0,9.8,74.6,1014.7,331.5,4.1,5.5,321.2,0.00,5.5,16.1,"01:58:48",1
"23/05/12","02:10",0.0,10.0,74.9,1014.5,330.2,4.5,6.4,333.8,0.00,5.8,15.9,"02:09:28",1
"23/05/12","02:20",0.0,10.1,74.7,1014.5,327.6,5.0,6.2,321.1,0.00,5.9,16.1,"02:14:48",1
"23/05/12","02:30",0.0,10.0,74.8,1014.2,327.8,4.6,6.7,326.8,0.00,5.8,15.9,"02:26:40",1
"23/05/12","02:40",0.0,9.8,75.2,1014.5,328.0,3.2,5.7,332.5,0.00,5.7,16.0,"02:36:40",1
"23/05/12","02:50",0.0,9.7,75.5,1014.5,329.5,3.9,6.3,343.7,0.00,5.6,15.9,"02:46:32",1
"23/05/12","03:00",0.0,9.3,75.8,1014.2,333.7,3.2,5.0,326.8,0.00,5.3,15.9,"02:58:00",1
"23/05/12","03:10",0.0,9.0,76.1,1014.7,334.9,2.5,3.9,338.8,0.00,5.1,16.0,"03:03:52",1
"23/05/12","03:20",0.0,8.7,76.8,1014.2,326.8,2.8,4.0,340.8,0.00,4.9,15.6,"03:14:40",1
"23/05/12","03:30",0.0,8.4,77.7,1014.5,328.6,3.0,3.7,343.6,0.00,4.8,15.7,"03:23:52",1
"23/05/12","03:40",0.0,8.3,78.4,1014.7,327.7,3.4,4.3,329.1,0.00,4.8,15.7,"03:31:12",1
"23/05/12","03:50",0.0,8.3,78.7,1014.7,327.4,3.5,4.7,315.1,0.00,4.9,15.7,"03:48:48",1
"23/05/12","04:00",0.0,8.2,78.7,1014.7,326.6,3.7,5.1,333.5,0.00,4.8,15.5,"03:54:16",1
"23/05/12","04:10",0.0,8.0,79.1,1014.7,326.7,3.5,4.5,323.8,0.00,4.6,15.6,"04:02:08",1
"23/05/12","04:20",0.0,7.8,79.9,1014.9,326.4,3.4,4.1,327.4,0.00,4.6,15.6,"04:14:08",1
"23/05/12","04:30",0.0,7.6,81.0,1015.2,320.3,3.1,4.2,330.3,0.00,4.6,15.6,"04:28:40",1
"23/05/12","04:40",0.0,7.8,82.0,1015.4,330.1,3.1,4.9,326.1,0.00,5.0,15.3,"04:39:20",1
"23/05/12","04:50",0.0,7.9,82.6,1014.9,331.2,3.1,5.1,338.4,0.00,5.2,15.6,"04:42:56",1
"23/05/12","05:00",0.0,7.7,82.6,1015.2,330.0,3.2,5.4,321.0,0.00,5.0,15.5,"04:54:40",1
"23/05/12","05:10",0.0,7.4,82.1,1015.6,325.5,3.0,4.4,333.0,0.00,4.6,15.5,"05:04:00",1
"23/05/12","05:20",0.0,7.3,81.3,1015.2,333.8,3.6,5.5,346.1,0.00,4.4,15.5,"05:13:52",1
"23/05/12","05:30",0.0,7.3,80.9,1015.6,326.6,4.1,5.7,326.7,0.00,4.3,15.4,"05:28:26",1
"23/05/12","05:40",0.0,7.2,80.6,1015.2,326.9,3.7,5.9,333.1,0.00,4.1,15.2,"05:33:28",1
"23/05/12","05:50",0.0,7.2,80.3,1015.4,318.4,4.2,5.9,325.7,0.00,4.1,15.2,"05:48:42",1
"23/05/12","06:00",0.0,7.6,79.2,1015.2,319.6,4.4,5.8,330.7,0.00,4.3,15.2,"05:50:16",1
"23/05/12","06:10",0.0,7.5,78.7,1015.2,326.8,4.0,6.2,328.0,0.00,4.1,15.0,"06:04:56",1
"23/05/12","06:20",0.0,7.6,78.0,1015.2,315.8,3.7,5.8,324.0,0.00,4.1,15.1,"06:11:52",1
"23/05/12","06:30",0.0,7.6,77.6,1015.2,309.2,3.5,4.7,313.4,0.00,4.0,15.1,"06:24:00",1
"23/05/12","06:40",0.0,8.1,76.7,1015.2,321.7,4.2,6.8,340.5,0.00,4.3,15.0,"06:32:08",1
"23/05/12","06:50",0.0,8.5,75.9,1015.4,332.6,2.7,4.5,318.5,0.03,4.5,14.8,"06:40:24",1
"23/05/12","07:00",0.0,9.2,74.8,1015.4,325.6,2.5,3.5,330.9,0.05,5.0,14.8,"06:51:44",1
"23/05/12","07:10",0.0,9.8,72.9,1015.6,334.0,2.6,3.7,347.8,0.07,5.2,14.9,"07:06:50",1
"23/05/12","07:20",0.0,10.3,71.1,1015.6,326.6,2.5,3.7,336.2,0.09,5.3,14.9,"07:17:52",1
"23/05/12","07:30",0.0,11.1,69.5,1015.9,321.8,2.2,4.2,328.5,0.11,5.8,14.9,"07:21:20",1
"23/05/12","07:40",0.0,11.9,69.0,1015.9,330.3,2.2,3.6,343.0,0.14,6.4,14.7,"07:30:24",1
"23/05/12","07:50",0.0,12.4,67.4,1015.6,337.1,2.0,3.9,347.8,0.16,6.6,14.8,"07:43:16",1
"23/05/12","08:00",0.0,13.3,66.2,1016.1,334.0,2.2,3.6,343.9,0.19,7.2,14.8,"07:54:10",1
"23/05/12","08:10",0.0,14.1,62.6,1015.9,317.9,1.5,2.7,344.7,0.21,7.1,14.7,"08:03:28",1
"23/05/12","08:20",0.0,14.5,60.7,1015.6,307.3,1.7,3.7,328.0,0.24,7.0,14.9,"08:14:08",1
"23/05/12","08:30",0.0,15.2,56.9,1016.4,324.7,1.3,2.4,333.7,0.27,6.8,14.9,"08:29:52",1
"23/05/12","08:40",0.0,16.4,54.3,1016.4,306.5,0.8,1.7,344.9,0.30,7.2,14.9,"08:30:16",1
"23/05/12","08:50",0.0,16.9,50.2,1015.9,357.3,0.6,1.1,167.8,0.32,6.5,15.0,"08:43:20",1
"23/05/12","09:00",0.0,17.2,49.5,1016.1,140.9,0.6,1.8,110.9,0.35,6.6,15.0,"08:56:56",1
"23/05/12","09:10",0.0,18.1,45.5,1016.1,348.2,0.6,1.8,136.4,0.37,6.2,14.9,"09:08:16",1
"23/05/12","09:20",0.0,17.8,45.1,1015.6,70.7,1.0,2.4,98.9,0.39,5.8,14.9,"09:10:40",1
"23/05/12","09:30",0.0,18.6,47.4,1015.4,13.0,0.8,2.1,344.6,0.42,7.2,14.9,"09:21:12",1
"23/05/12","09:40",0.0,18.5,41.0,1015.2,129.7,1.0,2.4,112.3,0.44,5.1,14.9,"09:36:48",1
"23/05/12","09:50",0.0,18.7,41.7,1014.9,272.6,1.1,2.4,345.1,0.46,5.5,14.8,"09:49:44",1
"23/05/12","10:00",0.0,19.2,39.3,1015.2,329.1,1.1,2.4,348.0,0.48,5.1,15.1,"09:50:48",1
"23/05/12","10:10",0.0,19.9,37.4,1014.9,324.5,0.7,2.2,45.0,0.50,5.0,15.1,"10:02:56",1
"23/05/12","10:20",0.0,20.3,34.6,1014.5,0.3,1.0,3.2,346.2,0.52,4.2,15.4,"10:19:44",1
"23/05/12","10:30",0.0,20.1,36.1,1014.5,70.9,1.3,2.8,340.3,0.53,4.7,15.4,"10:21:12",1
"23/05/12","10:40",0.0,20.1,31.8,1014.9,123.4,1.2,2.2,159.6,0.55,2.9,15.1,"10:35:20",1
"23/05/12","10:50",0.0,20.8,32.7,1014.2,349.2,1.0,2.1,312.1,0.56,3.9,15.3,"10:41:12",1
"23/05/12","11:00",0.0,21.5,33.4,1014.0,242.2,0.7,2.2,256.4,0.58,4.8,15.4,"10:58:08",1
"23/05/12","11:10",0.0,21.7,34.2,1014.0,229.7,1.1,2.9,238.4,0.56,5.3,15.6,"11:09:12",1
"23/05/12","11:20",0.0,21.7,33.1,1014.2,215.5,1.5,3.6,235.8,0.60,4.8,15.5,"11:11:20",1
"23/05/12","11:30",0.0,21.5,29.7,1014.0,247.8,1.2,3.1,236.7,0.53,3.1,15.8,"11:20:24",1
"23/05/12","11:40",0.0,22.2,29.1,1013.8,175.8,1.2,4.2,174.9,0.62,3.4,15.7,"11:37:20",1
"23/05/12","11:50",0.0,22.7,28.4,1013.5,232.9,1.1,3.1,200.3,0.61,3.5,15.8,"11:41:04",1
"23/05/12","12:00",0.0,23.0,30.4,1013.5,75.0,1.1,3.1,154.1,0.59,4.7,15.7,"11:50:02",1
"23/05/12","12:10",0.0,22.9,33.4,1013.5,201.9,1.7,4.5,231.5,0.63,6.0,15.9,"12:02:32",1
"23/05/12","12:20",0.0,23.0,28.7,1013.5,138.7,1.1,2.9,120.3,0.55,3.9,16.2,"12:11:12",1
"23/05/12","12:30",0.0,23.7,29.3,1013.3,225.0,1.1,3.5,197.4,0.63,4.8,16.3,"12:20:48",1
"23/05/12","12:40",0.0,23.7,29.2,1012.8,186.6,1.8,3.7,224.9,0.64,4.8,16.2,"12:39:52",1
"23/05/12","12:50",0.0,23.9,26.4,1012.6,277.8,1.6,3.3,231.0,0.64,3.5,16.3,"12:42:08",1
"23/05/12","13:00",0.0,24.2,26.5,1012.6,203.3,1.3,3.5,213.9,0.63,3.8,16.7,"12:59:44",1
"23/05/12","13:10",0.0,24.0,27.0,1012.3,217.1,2.1,5.0,232.0,0.62,3.9,16.4,"13:07:36",1
"23/05/12","13:20",0.0,24.4,24.9,1012.3,251.5,1.5,3.9,216.1,0.62,3.1,16.6,"13:16:40",1
"23/05/12","13:30",0.0,25.0,28.7,1011.9,187.5,1.5,3.6,220.2,0.62,5.6,16.9,"13:23:28",1
"23/05/12","13:40",0.0,24.9,24.5,1011.9,136.1,1.8,6.3,117.9,0.57,3.3,16.8,"13:35:44",1
"23/05/12","13:50",0.0,25.1,24.7,1011.6,165.2,1.7,4.2,186.9,0.59,3.6,16.8,"13:43:04",1
"23/05/12","14:00",0.0,25.6,23.4,1011.4,1.9,1.0,2.6,51.1,0.58,3.2,17.1,"13:50:32",1
"23/05/12","14:10",0.0,25.9,25.2,1010.7,117.0,1.1,3.6,199.2,0.57,4.5,16.9,"14:05:12",1
"23/05/12","14:20",0.0,25.9,22.1,1010.9,94.7,1.1,3.5,101.3,0.56,2.7,17.0,"14:16:08",1
"23/05/12","14:30",0.0,25.8,23.5,1011.2,136.3,1.7,3.2,112.2,0.55,3.5,17.2,"14:27:44",1
"23/05/12","14:40",0.0,25.9,22.6,1010.4,194.6,1.7,4.9,196.5,0.54,3.0,17.1,"14:36:00",1
"23/05/12","14:50",0.0,26.2,25.7,1010.9,206.1,1.6,3.7,235.7,0.52,5.1,17.4,"14:46:40",1
"23/05/12","15:00",0.0,26.1,20.4,1010.4,222.1,1.6,5.0,220.7,0.51,1.7,17.2,"14:59:28",1
"23/05/12","15:10",0.0,25.9,24.7,1010.2,181.3,2.5,4.0,171.2,0.49,4.3,17.4,"15:01:04",1
"23/05/12","15:20",0.0,26.1,23.6,1010.0,147.5,2.0,5.4,134.8,0.47,3.8,17.3,"15:19:44",1
"23/05/12","15:30",0.0,25.9,23.8,1009.7,183.1,2.0,3.4,188.4,0.43,3.7,17.7,"15:23:52",1
"23/05/12","15:40",0.0,26.1,24.9,1010.0,229.5,1.6,5.0,226.1,0.42,4.5,17.6,"15:33:52",1
"23/05/12","15:50",0.0,25.8,23.5,1010.4,208.9,2.6,5.4,214.1,0.40,3.5,17.7,"15:47:20",1
"23/05/12","16:00",0.0,25.9,24.6,1010.4,171.6,1.8,7.2,191.6,0.36,4.2,17.8,"15:52:56",1
"23/05/12","16:10",0.0,25.8,24.5,1010.0,202.8,2.0,6.2,228.6,0.31,4.1,17.8,"16:02:24",1
"23/05/12","16:20",0.0,25.5,21.6,1010.2,202.6,2.0,4.8,232.1,0.30,2.0,18.0,"16:13:52",1
"23/05/12","16:30",0.0,25.8,21.6,1010.2,232.2,1.6,3.1,211.1,0.28,2.3,17.9,"16:22:24",1
"23/05/12","16:40",0.0,25.7,21.9,1010.2,219.0,1.3,2.6,246.1,0.20,2.4,18.0,"16:31:12",1
"23/05/12","16:50",0.0,25.4,24.0,1010.0,196.0,2.0,5.1,91.2,0.20,3.4,18.1,"16:46:32",1
"23/05/12","17:00",0.0,25.8,26.2,1010.0,190.1,1.3,3.1,216.4,0.22,5.0,17.8,"16:50:32",1
"23/05/12","17:10",0.0,25.6,21.3,1010.0,221.8,1.8,4.0,222.0,0.23,1.9,18.2,"17:05:12",1
"23/05/12","17:20",0.0,25.9,22.7,1010.2,238.9,1.3,3.1,210.7,0.20,3.1,18.0,"17:11:04",1
"23/05/12","17:30",0.0,25.7,24.4,1010.2,226.2,1.3,3.9,246.4,0.18,3.9,18.1,"17:21:12",1
"23/05/12","17:40",0.0,25.8,22.8,1010.2,284.6,1.1,3.1,250.6,0.13,3.0,18.2,"17:31:12",1
"23/05/12","17:50",0.0,24.7,21.9,1010.2,246.9,1.1,2.4,244.1,0.06,1.6,18.2,"17:44:56",1
"23/05/12","18:00",0.0,24.3,23.3,1010.0,225.9,1.2,2.9,219.2,0.07,2.1,18.2,"17:56:16",1
"23/05/12","18:10",0.0,24.1,27.6,1010.2,218.1,1.5,3.1,218.6,0.05,4.3,18.1,"18:05:04",1
"23/05/12","18:20",0.0,23.9,26.4,1010.4,223.7,1.3,2.5,230.0,0.04,3.5,18.3,"18:14:40",1
"23/05/12","18:30",0.0,23.6,27.8,1010.4,233.6,1.6,2.6,241.0,0.03,4.0,18.3,"18:28:32",1
"23/05/12","18:40",0.0,23.0,28.2,1010.7,202.7,1.2,2.9,262.3,0.03,3.7,18.1,"18:32:08",1
"23/05/12","18:50",0.0,22.9,23.4,1011.2,155.6,1.5,3.1,146.0,0.02,1.0,18.2,"18:40:40",1
"23/05/12","19:00",0.0,22.7,27.4,1011.4,347.6,1.5,3.9,345.4,0.01,3.0,18.0,"18:56:00",1
"23/05/12","19:10",0.0,21.7,25.1,1011.4,346.5,1.5,2.4,320.6,0.00,0.9,18.3,"19:02:48",1
"23/05/12","19:20",0.0,21.3,26.4,1011.6,133.4,0.7,2.1,137.9,0.00,1.3,18.1,"19:18:16",1
"23/05/12","19:30",0.0,20.3,39.1,1011.4,341.1,1.2,2.1,338.3,0.00,6.0,18.2,"19:25:12",1
"23/05/12","19:40",0.0,19.5,42.8,1011.4,335.8,1.1,2.0,337.0,0.00,6.6,18.1,"19:39:20",1
"23/05/12","19:50",0.0,18.7,45.2,1012.1,311.2,1.1,1.9,338.8,0.00,6.6,18.2,"19:40:56",1
"23/05/12","20:00",0.0,18.2,47.0,1011.9,321.1,1.8,2.7,311.1,0.00,6.8,17.8,"19:59:44",1
"23/05/12","20:10",0.0,17.6,47.8,1012.3,304.7,1.5,2.5,334.0,0.00,6.5,17.9,"20:05:04",1
"23/05/12","20:20",0.0,17.5,49.2,1012.6,329.0,1.3,2.4,340.4,0.00,6.8,17.9,"20:19:44",1
"23/05/12","20:30",0.0,16.9,51.7,1012.8,323.4,1.5,2.2,343.8,0.00,6.9,17.8,"20:20:16",1
"23/05/12","20:40",0.0,16.6,50.8,1012.8,305.8,1.5,2.1,313.9,0.00,6.4,17.9,"20:34:42",1
"23/05/12","20:50",0.0,16.6,49.0,1012.8,304.8,1.3,2.4,317.4,0.00,5.9,17.8,"20:40:52",1
"23/05/12","21:00",0.0,16.6,48.4,1013.3,303.8,1.5,1.9,335.7,0.00,5.7,17.7,"20:51:42",1
"23/05/12","21:10",0.0,16.5,49.9,1013.3,327.6,1.2,2.0,313.0,0.00,6.1,17.7,"21:00:28",1
"23/05/12","21:20",0.0,16.0,56.8,1013.3,335.3,1.5,2.1,331.6,0.00,7.5,17.7,"21:16:10",1
"23/05/12","21:30",0.0,15.4,56.2,1013.5,273.3,1.3,1.7,269.0,0.00,6.8,17.6,"21:28:48",1
"23/05/12","21:40",0.0,16.0,53.4,1013.5,261.4,1.0,1.8,277.5,0.00,6.6,17.7,"21:31:36",1
"23/05/12","21:50",0.0,15.9,54.2,1013.3,314.0,1.6,2.2,326.1,0.00,6.7,17.5,"21:44:00",1
"23/05/12","22:00",0.0,15.8,54.9,1013.8,303.8,1.6,2.4,315.1,0.00,6.8,17.3,"21:59:46",1
"23/05/12","22:10",0.0,15.8,56.0,1013.8,321.7,2.0,2.7,313.3,0.00,7.1,17.3,"22:01:38",1
"23/05/12","22:20",0.0,15.4,58.6,1013.8,323.4,1.3,2.9,331.0,0.00,7.4,17.5,"22:10:18",1
"23/05/12","22:30",0.0,15.4,59.8,1013.8,309.4,2.0,2.6,326.7,0.00,7.7,17.2,"22:24:58",1
"23/05/12","22:40",0.0,15.3,61.0,1014.0,312.6,1.7,2.4,312.2,0.00,7.9,17.3,"22:33:04",1
"23/05/12","22:50",0.0,15.2,62.0,1013.5,314.4,2.0,2.5,316.1,0.00,8.0,17.0,"22:41:28",1
"23/05/12","23:00",0.0,15.0,63.5,1013.8,309.4,1.6,2.1,309.4,0.00,8.2,17.2,"22:50:16",1
"23/05/12","23:10",0.0,15.0,64.5,1013.8,307.4,1.8,2.6,317.5,0.00,8.4,17.1,"23:05:36",1
"23/05/12","23:20",0.0,14.7,65.9,1013.8,315.3,1.6,2.7,325.6,0.00,8.4,17.0,"23:13:12",1
"23/05/12","23:30",0.0,14.5,67.8,1013.5,318.8,1.7,2.4,314.5,0.00,8.7,17.1,"23:27:36",1
"23/05/12","23:40",0.0,14.4,68.9,1013.8,309.4,2.0,2.8,310.2,0.00,8.8,17.1,"23:33:52",1
"23/05/12","23:50",0.0,14.4,69.7,1014.0,298.4,1.6,2.5,320.7,0.00,9.0,16.8,"23:48:24",1
"23/05/12","24:00",0.0,14.4,70.6,1013.8,306.9,1.8,2.6,311.4,0.00,9.2,16.8,"23:54:08",1
